DELTA 1 R/B (20323 NORAD) Tracking and Keplerian Element Data

This shows tracking and keplerian element data for the satellite.

Feedback or suggestion? Click here.




ElementValue
Catalog20323
NameDELTA 1 R/B
Epoch Orbit51314
Epoch Day348.66187372
Epoch Year2018
RAAN213.6355
Inclination97.0864
Eccentricity0.0072127
Argument of Perigee163.9134
Mean Anonmoly196.4377
Mean Motion14.48281882
Decay Rate5E-08
L11 20323U 89089B 18348.66187372 .00000005 00000-0 10287-4 0 9995
L22 20323 97.0864 213.6355 0072127 163.9134 196.4377 14.48281882513144

Live tracking and technical data element details for DELTA 1 R/B (NORAD 20323). DELTA 1 R/B can be tracked NOW for your location showing map with azimuth and elevation plus other details from your city location.

Track the satellite on the map from your city or location and see movement details for azimuth, elevation, latitude, longitude, range, height, and movement on the map or in text.







IsCatalogInMostPopularTable: catalog: 20323, numindb: 46
Update: records affected: 1



GetName: 20323 DELTA 1 R/B

Hit Count: updated at: Sat, 15 Dec 2018 13:38:08 GMT